Time,TemperatureF,DewpointF,PressureIn,WindDirection,WindDirectionDegrees,WindSpeedMPH,WindSpeedGustMPH,Humidity,HourlyPrecipIn,Conditions,Clouds,dailyrainin,SoftwareType,DateUTC
2013-06-26 00:01:00,67.0,63.0,29.95,ENE,74,0.0,-999.0,86,-99.99,,,-99.99,,2013-06-26 07:01:00,
2013-06-26 00:11:00,67.0,63.0,29.95,ENE,74,0.0,-999.0,86,-99.99,,,-99.99,,2013-06-26 07:11:00,
2013-06-26 00:21:00,66.0,62.0,29.96,ENE,74,0.0,-999.0,86,-99.99,,,-99.99,,2013-06-26 07:21:00,
2013-06-26 00:33:00,66.0,62.0,29.96,ENE,74,0.0,-999.0,87,-99.99,,,-99.99,,2013-06-26 07:33:00,
2013-06-26 00:42:00,66.0,62.0,29.96,ENE,74,0.0,-999.0,87,-99.99,,,-99.99,,2013-06-26 07:42:00,
2013-06-26 00:53:00,65.0,61.0,29.96,ENE,74,0.0,-999.0,87,-99.99,,,-99.99,,2013-06-26 07:53:00,
2013-06-26 01:01:00,65.0,61.0,29.96,ENE,74,0.0,-999.0,88,-99.99,,,-99.99,,2013-06-26 08:01:00,
2013-06-26 01:11:00,65.0,61.0,29.96,ENE,74,0.0,-999.0,88,-99.99,,,-99.99,,2013-06-26 08:11:00,
2013-06-26 01:22:00,65.0,62.0,29.96,ENE,74,0.0,-999.0,89,-99.99,,,-99.99,,2013-06-26 08:22:00,
2013-06-26 01:33:00,65.0,62.0,29.96,ENE,74,0.0,-999.0,89,-99.99,,,-99.99,,2013-06-26 08:33:00,
2013-06-26 01:42:00,65.0,62.0,29.96,ENE,74,0.0,-999.0,89,-99.99,,,-99.99,,2013-06-26 08:42:00,
2013-06-26 01:53:00,64.0,61.0,29.95,ENE,74,0.0,-999.0,90,-99.99,,,-99.99,,2013-06-26 08:53:00,
2013-06-26 02:01:00,64.0,61.0,29.95,ENE,74,0.0,-999.0,91,-99.99,,,-99.99,,2013-06-26 09:01:00,
2013-06-26 02:11:00,64.0,61.0,29.95,ENE,74,0.0,-999.0,91,-99.99,,,-99.99,,2013-06-26 09:11:00,
2013-06-26 02:22:00,64.0,61.0,29.95,ENE,74,0.0,-999.0,91,-99.99,,,-99.99,,2013-06-26 09:22:00,
2013-06-26 02:32:00,64.0,61.0,29.96,ENE,74,0.0,-999.0,91,-99.99,,,-99.99,,2013-06-26 09:32:00,
2013-06-26 02:43:00,64.0,61.0,29.96,ENE,74,0.0,-999.0,91,-99.99,,,-99.99,,2013-06-26 09:43:00,
2013-06-26 02:53:00,64.0,61.0,29.96,ENE,74,0.0,-999.0,91,-99.99,,,-99.99,,2013-06-26 09:53:00,
2013-06-26 03:01:00,64.0,61.0,29.96,ENE,74,0.0,-999.0,91,-99.99,,,-99.99,,2013-06-26 10:01:00,
2013-06-26 03:12:00,64.0,61.0,29.96,ENE,74,0.0,-999.0,91,-99.99,,,-99.99,,2013-06-26 10:12:00,
2013-06-26 03:22:00,63.0,61.0,29.96,ENE,74,0.0,-999.0,92,-99.99,,,-99.99,,2013-06-26 10:22:00,
2013-06-26 03:33:00,63.0,61.0,29.96,ENE,74,0.0,-999.0,92,-99.99,,,-99.99,,2013-06-26 10:33:00,
2013-06-26 03:43:00,63.0,61.0,29.96,ENE,74,0.0,-999.0,92,-99.99,,,-99.99,,2013-06-26 10:43:00,
2013-06-26 03:53:00,63.0,61.0,29.96,ENE,74,0.0,-999.0,92,-99.99,,,-99.99,,2013-06-26 10:53:00,
2013-06-26 04:02:00,63.0,61.0,29.96,ENE,74,0.0,-999.0,92,-99.99,,,-99.99,,2013-06-26 11:02:00,
2013-06-26 04:11:00,63.0,61.0,29.96,ENE,74,0.0,-999.0,92,-99.99,,,-99.99,,2013-06-26 11:11:00,
2013-06-26 04:22:00,63.0,61.0,29.96,ENE,74,0.0,-999.0,93,-99.99,,,-99.99,,2013-06-26 11:22:00,
2013-06-26 04:32:00,63.0,61.0,29.96,ENE,74,0.0,-999.0,93,-99.99,,,-99.99,,2013-06-26 11:32:00,
2013-06-26 04:43:00,63.0,61.0,29.96,ENE,74,0.0,-999.0,93,-99.99,,,-99.99,,2013-06-26 11:43:00,
2013-06-26 04:52:00,63.0,61.0,29.96,ENE,74,0.0,-999.0,93,-99.99,,,-99.99,,2013-06-26 11:52:00,
2013-06-26 05:02:00,63.0,61.0,29.97,ENE,74,0.0,-999.0,93,-99.99,,,-99.99,,2013-06-26 12:02:00,
2013-06-26 05:11:00,63.0,61.0,29.97,ENE,74,0.0,-999.0,93,-99.99,,,-99.99,,2013-06-26 12:11:00,
2013-06-26 05:22:00,62.0,60.0,29.97,ENE,74,0.0,-999.0,93,-99.99,,,-99.99,,2013-06-26 12:22:00,
2013-06-26 05:33:00,62.0,60.0,29.97,ENE,74,0.0,-999.0,94,-99.99,,,-99.99,,2013-06-26 12:33:00,
2013-06-26 05:42:00,62.0,60.0,29.97,ENE,74,0.0,-999.0,94,-99.99,,,-99.99,,2013-06-26 12:42:00,
2013-06-26 05:52:00,62.0,60.0,29.98,ENE,74,0.0,-999.0,94,-99.99,,,-99.99,,2013-06-26 12:52:00,
2013-06-26 06:02:00,62.0,60.0,29.98,ENE,74,0.0,-999.0,94,-99.99,,,-99.99,,2013-06-26 13:02:00,
2013-06-26 06:22:00,62.0,60.0,29.98,ENE,74,0.0,-999.0,94,-99.99,,,-99.99,,2013-06-26 13:22:00,
2013-06-26 06:34:00,62.0,60.0,29.98,ENE,74,0.0,-999.0,94,-99.99,,,-99.99,,2013-06-26 13:34:00,
2013-06-26 06:42:00,62.0,60.0,29.98,ENE,74,0.0,-999.0,94,-99.99,,,-99.99,,2013-06-26 13:42:00,
2013-06-26 06:53:00,62.0,60.0,29.99,ENE,74,0.0,-999.0,94,-99.99,,,-99.99,,2013-06-26 13:53:00,
2013-06-26 07:02:00,63.0,62.0,30.00,ENE,74,0.0,-999.0,95,-99.99,,,-99.99,,2013-06-26 14:02:00,
2013-06-26 07:11:00,63.0,62.0,30.00,ENE,74,0.0,-999.0,95,-99.99,,,-99.99,,2013-06-26 14:11:00,
2013-06-26 07:23:00,64.0,63.0,30.00,ENE,74,0.0,-999.0,95,-99.99,,,-99.99,,2013-06-26 14:23:00,
2013-06-26 07:33:00,64.0,62.0,30.00,ENE,74,0.0,-999.0,94,-99.99,,,-99.99,,2013-06-26 14:33:00,
2013-06-26 07:42:00,64.0,62.0,30.00,ENE,74,0.0,-999.0,94,-99.99,,,-99.99,,2013-06-26 14:42:00,
2013-06-26 07:53:00,66.0,63.0,30.00,ENE,74,0.0,-999.0,91,-99.99,,,-99.99,,2013-06-26 14:53:00,
2013-06-26 08:02:00,67.0,64.0,30.01,ENE,74,0.0,-999.0,89,-99.99,,,-99.99,,2013-06-26 15:02:00,
2013-06-26 08:11:00,67.0,64.0,30.01,ENE,74,0.0,-999.0,89,-99.99,,,-99.99,,2013-06-26 15:11:00,
2013-06-26 08:22:00,68.0,64.0,30.01,ENE,74,0.0,-999.0,86,-99.99,,,-99.99,,2013-06-26 15:22:00,
2013-06-26 08:33:00,69.0,64.0,30.01,ENE,74,0.0,-999.0,83,-99.99,,,-99.99,,2013-06-26 15:33:00,
2013-06-26 08:43:00,69.0,64.0,30.01,ENE,74,0.0,-999.0,83,-99.99,,,-99.99,,2013-06-26 15:43:00,
2013-06-26 08:53:00,70.0,64.0,30.02,ENE,74,0.0,-999.0,81,-99.99,,,-99.99,,2013-06-26 15:53:00,
2013-06-26 09:01:00,71.0,64.0,30.02,ENE,75,0.0,-999.0,78,-99.99,,,-99.99,,2013-06-26 16:01:00,
2013-06-26 09:11:00,71.0,64.0,30.02,ENE,75,0.0,-999.0,78,-99.99,,,-99.99,,2013-06-26 16:11:00,
2013-06-26 09:22:00,72.0,64.0,30.02,East,93,0.0,-999.0,76,-99.99,,,-99.99,,2013-06-26 16:22:00,
2013-06-26 09:34:00,73.0,65.0,30.01,East,93,0.0,-999.0,75,-99.99,,,-99.99,,2013-06-26 16:34:00,
2013-06-26 09:43:00,73.0,65.0,30.01,East,93,0.0,-999.0,75,-99.99,,,-99.99,,2013-06-26 16:43:00,
2013-06-26 09:52:00,74.0,65.0,30.01,ESE,118,0.0,-999.0,73,-99.99,,,-99.99,,2013-06-26 16:52:00,
2013-06-26 10:01:00,74.0,65.0,30.01,East,89,0.0,-999.0,73,-99.99,,,-99.99,,2013-06-26 17:01:00,
2013-06-26 10:11:00,74.0,65.0,30.01,East,89,0.0,-999.0,73,-99.99,,,-99.99,,2013-06-26 17:11:00,
2013-06-26 10:33:00,76.0,65.0,30.01,East,99,0.0,-999.0,69,-99.99,,,-99.99,,2013-06-26 17:33:00,
2013-06-26 10:43:00,76.0,65.0,30.01,East,99,0.0,-999.0,69,-99.99,,,-99.99,,2013-06-26 17:43:00,
2013-06-26 10:52:00,78.0,66.0,30.01,ESE,111,0.0,-999.0,67,-99.99,,,-99.99,,2013-06-26 17:52:00,
2013-06-26 11:01:00,78.0,65.0,30.01,SE,124,1.0,-999.0,65,-99.99,,,-99.99,,2013-06-26 18:01:00,
2013-06-26 11:11:00,78.0,65.0,30.01,SE,124,1.0,-999.0,65,-99.99,,,-99.99,,2013-06-26 18:11:00,
2013-06-26 11:22:00,78.0,65.0,30.01,WNW,302,0.0,-999.0,64,-99.99,,,-99.99,,2013-06-26 18:22:00,
2013-06-26 11:34:00,80.0,66.0,30.01,South,173,0.0,-999.0,62,-99.99,,,-99.99,,2013-06-26 18:34:00,
2013-06-26 11:42:00,80.0,66.0,30.01,South,173,0.0,-999.0,62,-99.99,,,-99.99,,2013-06-26 18:42:00,
2013-06-26 11:52:00,81.0,66.0,30.01,WSW,244,0.0,-999.0,61,-99.99,,,-99.99,,2013-06-26 18:52:00,
2013-06-26 12:01:00,82.0,66.0,30.01,NW,321,1.0,-999.0,58,-99.99,,,-99.99,,2013-06-26 19:01:00,
2013-06-26 12:11:00,82.0,66.0,30.01,NW,321,1.0,-999.0,58,-99.99,,,-99.99,,2013-06-26 19:11:00,
2013-06-26 12:22:00,82.0,66.0,30.00,WSW,243,0.0,-999.0,58,-99.99,,,-99.99,,2013-06-26 19:22:00,
2013-06-26 12:32:00,82.0,66.0,30.00,SW,217,0.0,-999.0,58,-99.99,,,-99.99,,2013-06-26 19:32:00,
2013-06-26 12:42:00,82.0,66.0,30.00,SW,217,0.0,-999.0,58,-99.99,,,-99.99,,2013-06-26 19:42:00,
2013-06-26 12:52:00,83.0,66.0,30.00,East,88,1.0,-999.0,57,-99.99,,,-99.99,,2013-06-26 19:52:00,
2013-06-26 13:01:00,83.0,65.0,30.00,SW,229,0.0,-999.0,54,-99.99,,,-99.99,,2013-06-26 20:01:00,
2013-06-26 13:12:00,83.0,65.0,30.00,SW,229,0.0,-999.0,54,-99.99,,,-99.99,,2013-06-26 20:12:00,
2013-06-26 13:22:00,84.0,64.0,30.00,SW,234,1.0,-999.0,52,-99.99,,,-99.99,,2013-06-26 20:22:00,
2013-06-26 13:33:00,84.0,65.0,30.00,SSW,205,1.0,-999.0,53,-99.99,,,-99.99,,2013-06-26 20:33:00,
2013-06-26 13:43:00,84.0,65.0,30.00,SSW,205,1.0,-999.0,53,-99.99,,,-99.99,,2013-06-26 20:43:00,
2013-06-26 13:52:00,85.0,65.0,29.99,SW,225,1.0,-999.0,52,-99.99,,,-99.99,,2013-06-26 20:52:00,
2013-06-26 14:01:00,85.0,64.0,29.99,SW,225,0.0,-999.0,50,-99.99,,,-99.99,,2013-06-26 21:01:00,
2013-06-26 14:11:00,85.0,64.0,29.99,SW,225,0.0,-999.0,50,-99.99,,,-99.99,,2013-06-26 21:11:00,
2013-06-26 14:23:00,85.0,65.0,29.99,SSW,203,0.0,-999.0,51,-99.99,,,-99.99,,2013-06-26 21:23:00,
2013-06-26 14:33:00,86.0,65.0,29.98,West,268,1.0,-999.0,50,-99.99,,,-99.99,,2013-06-26 21:33:00,
2013-06-26 14:43:00,86.0,65.0,29.98,West,268,1.0,-999.0,50,-99.99,,,-99.99,,2013-06-26 21:43:00,
2013-06-26 14:52:00,86.0,65.0,29.98,SW,219,1.0,-999.0,50,-99.99,,,-99.99,,2013-06-26 21:52:00,
2013-06-26 15:01:00,86.0,65.0,29.98,West,265,1.0,-999.0,49,-99.99,,,-99.99,,2013-06-26 22:01:00,
2013-06-26 15:11:00,86.0,65.0,29.98,West,265,1.0,-999.0,49,-99.99,,,-99.99,,2013-06-26 22:11:00,
2013-06-26 15:21:00,86.0,65.0,29.97,WNW,291,0.0,-999.0,49,-99.99,,,-99.99,,2013-06-26 22:21:00,
2013-06-26 15:33:00,87.0,65.0,29.97,SSE,164,1.0,-999.0,48,-99.99,,,-99.99,,2013-06-26 22:33:00,
2013-06-26 15:43:00,87.0,65.0,29.97,SSE,164,1.0,-999.0,48,-99.99,,,-99.99,,2013-06-26 22:43:00,
2013-06-26 15:52:00,86.0,63.0,29.97,West,264,1.0,-999.0,47,-99.99,,,-99.99,,2013-06-26 22:52:00,
2013-06-26 16:01:00,87.0,64.0,29.96,West,272,1.0,-999.0,46,-99.99,,,-99.99,,2013-06-26 23:01:00,
2013-06-26 16:11:00,87.0,64.0,29.96,West,272,1.0,-999.0,46,-99.99,,,-99.99,,2013-06-26 23:11:00,
2013-06-26 16:22:00,87.0,63.0,29.96,West,271,0.0,-999.0,45,-99.99,,,-99.99,,2013-06-26 23:22:00,
2013-06-26 16:33:00,88.0,63.0,29.96,SSE,153,1.0,-999.0,44,-99.99,,,-99.99,,2013-06-26 23:33:00,
2013-06-26 16:43:00,88.0,63.0,29.96,SSE,153,1.0,-999.0,44,-99.99,,,-99.99,,2013-06-26 23:43:00,
2013-06-26 16:53:00,88.0,63.0,29.96,South,169,1.0,-999.0,44,-99.99,,,-99.99,,2013-06-26 23:53:00,
2013-06-26 17:01:00,89.0,64.0,29.95,South,171,0.0,-999.0,44,-99.99,,,-99.99,,2013-06-27 00:01:00,
2013-06-26 17:11:00,89.0,64.0,29.95,South,171,0.0,-999.0,44,-99.99,,,-99.99,,2013-06-27 00:11:00,
2013-06-26 17:22:00,89.0,61.0,29.95,South,171,0.0,-999.0,40,-99.99,,,-99.99,,2013-06-27 00:22:00,
2013-06-26 17:33:00,89.0,61.0,29.95,South,171,0.0,-999.0,40,-99.99,,,-99.99,,2013-06-27 00:33:00,
2013-06-26 17:42:00,89.0,62.0,29.95,South,173,1.0,-999.0,41,-99.99,,,-99.99,,2013-06-27 00:42:00,
2013-06-26 18:01:00,88.0,61.0,29.95,South,173,0.0,-999.0,40,-99.99,,,-99.99,,2013-06-27 01:01:00,
2013-06-26 18:11:00,88.0,61.0,29.95,South,173,0.0,-999.0,40,-99.99,,,-99.99,,2013-06-27 01:11:00,
2013-06-26 18:21:00,88.0,61.0,29.95,South,173,0.0,-999.0,40,-99.99,,,-99.99,,2013-06-27 01:21:00,
2013-06-26 18:32:00,88.0,60.0,29.94,South,174,0.0,-999.0,39,-99.99,,,-99.99,,2013-06-27 01:32:00,
2013-06-26 18:42:00,87.0,60.0,29.94,South,177,0.0,-999.0,40,-99.99,,,-99.99,,2013-06-27 01:42:00,
2013-06-26 18:53:00,87.0,60.0,29.94,South,177,0.0,-999.0,40,-99.99,,,-99.99,,2013-06-27 01:53:00,
2013-06-26 19:01:00,86.0,59.0,29.93,WNW,299,0.0,-999.0,40,-99.99,,,-99.99,,2013-06-27 02:01:00,
2013-06-26 19:11:00,86.0,59.0,29.93,WNW,299,0.0,-999.0,40,-99.99,,,-99.99,,2013-06-27 02:11:00,
2013-06-26 19:22:00,86.0,59.0,29.93,WNW,299,0.0,-999.0,40,-99.99,,,-99.99,,2013-06-27 02:22:00,
2013-06-26 19:32:00,86.0,60.0,29.93,WNW,298,0.0,-999.0,42,-99.99,,,-99.99,,2013-06-27 02:32:00,
2013-06-26 19:42:00,86.0,60.0,29.93,WNW,298,0.0,-999.0,42,-99.99,,,-99.99,,2013-06-27 02:42:00,
2013-06-26 19:52:00,85.0,59.0,29.94,WNW,290,0.0,-999.0,42,-99.99,,,-99.99,,2013-06-27 02:52:00,
2013-06-26 20:01:00,85.0,59.0,29.94,WNW,290,0.0,-999.0,42,-99.99,,,-99.99,,2013-06-27 03:01:00,
2013-06-26 20:11:00,85.0,59.0,29.94,WNW,290,0.0,-999.0,42,-99.99,,,-99.99,,2013-06-27 03:11:00,
2013-06-26 20:21:00,85.0,60.0,29.93,WNW,290,0.0,-999.0,43,-99.99,,,-99.99,,2013-06-27 03:21:00,
2013-06-26 20:32:00,85.0,60.0,29.93,WNW,290,0.0,-999.0,43,-99.99,,,-99.99,,2013-06-27 03:32:00,
2013-06-26 20:42:00,86.0,63.0,29.94,WNW,290,0.0,-999.0,46,-99.99,,,-99.99,,2013-06-27 03:42:00,
2013-06-26 20:52:00,86.0,63.0,29.94,WNW,290,0.0,-999.0,46,-99.99,,,-99.99,,2013-06-27 03:52:00,
2013-06-26 21:01:00,86.0,63.0,29.94,WNW,290,0.0,-999.0,46,-99.99,,,-99.99,,2013-06-27 04:01:00,
2013-06-26 21:11:00,86.0,63.0,29.94,WNW,290,0.0,-999.0,46,-99.99,,,-99.99,,2013-06-27 04:11:00,
2013-06-26 21:33:00,85.0,62.0,29.94,WNW,290,0.0,-999.0,47,-99.99,,,-99.99,,2013-06-27 04:33:00,
2013-06-26 21:42:00,85.0,62.0,29.94,WNW,290,0.0,-999.0,47,-99.99,,,-99.99,,2013-06-27 04:42:00,
2013-06-26 21:52:00,80.0,63.0,29.96,WNW,290,0.0,-999.0,56,-99.99,,,-99.99,,2013-06-27 04:52:00,
2013-06-26 22:02:00,80.0,63.0,29.96,WNW,290,0.0,-999.0,56,-99.99,,,-99.99,,2013-06-27 05:02:00,
2013-06-26 22:11:00,80.0,63.0,29.96,WNW,290,0.0,-999.0,56,-99.99,,,-99.99,,2013-06-27 05:11:00,
2013-06-26 22:21:00,79.0,63.0,29.97,WNW,290,0.0,-999.0,59,-99.99,,,-99.99,,2013-06-27 05:21:00,
2013-06-26 22:32:00,79.0,63.0,29.97,WNW,290,0.0,-999.0,59,-99.99,,,-99.99,,2013-06-27 05:32:00,
2013-06-26 22:42:00,77.0,62.0,29.97,WNW,290,0.0,-999.0,60,-99.99,,,-99.99,,2013-06-27 05:42:00,
2013-06-26 22:53:00,76.0,62.0,29.97,West,269,0.0,-999.0,61,-99.99,,,-99.99,,2013-06-27 05:53:00,
2013-06-26 23:01:00,76.0,62.0,29.97,West,269,0.0,-999.0,61,-99.99,,,-99.99,,2013-06-27 06:01:00,
2013-06-26 23:12:00,76.0,62.0,29.97,West,269,0.0,-999.0,63,-99.99,,,-99.99,,2013-06-27 06:12:00,
2013-06-26 23:22:00,75.0,62.0,29.98,West,269,0.0,-999.0,63,-99.99,,,-99.99,,2013-06-27 06:22:00,
2013-06-26 23:34:00,75.0,62.0,29.98,West,269,0.0,-999.0,65,-99.99,,,-99.99,,2013-06-27 06:34:00,
2013-06-26 23:43:00,75.0,62.0,29.98,West,269,0.0,-999.0,65,-99.99,,,-99.99,,2013-06-27 06:43:00,
2013-06-26 23:53:00,74.0,62.0,29.98,West,269,0.0,-999.0,66,-99.99,,,-99.99,,2013-06-27 06:53:00,